{"data":{"norad_id":63356,"epoch":"2026-05-24T21:27:39.411360Z","epoch_age_seconds":83912,"freshness":"FRESH","line1":"1 63356U 25061F   26144.89420615  .00003594  00000+0  19775-3 0  9991","line2":"2 63356  97.5595 121.0128 0017253 333.7166  26.3188 15.14583705 64116","mean_motion":15.14583705,"eccentricity":0.0017253,"inclination_deg":97.5595,"raan_deg":121.0128,"arg_perigee_deg":333.7166,"mean_anomaly_deg":26.3188,"bstar":0.00019775,"rev_number":6411,"period_min":95.075630039213,"perigee_km":510.33746043653,"apogee_km":534.14791057934,"semimajor_km":6900.3796855079,"source":"CELESTRAK","updated_at":"2026-05-25T13:38:13.541860Z"}}